www.pogodaiklimat.ru

Погода и климат >> Архив погоды >> Таиланд >> Чонбури


ПОГОДА в Чонбури

  • Прогноз погоды в Чонбури
  • Монитор погоды в Чонбури

АРХИВ ПОГОДЫ в Чонбури

Время (UTC), дата Ветер
(напр.,м/с)
 
Видим.   Явления Облачность Т
(С)
Тd
(С)
f
(%)
Тe
(С)
Тes
(С)
Комфортность P
(гПа)
Po
(гПа)
Тmin
(С)
Tmax
(С)
R
(мм)
R24
(мм)
S
(см)
15 15.09 В 2 4000 м слаб. дождь 10/8 600 м
[Cu Sc Ac As]
+27.1 +26.2 95 +41 +41 опасность
перегрева
1008.0 1007.7 4
18 15.09 штиль 0 8000 м дымка {дождь} 10/6 600 м
[Sc Ac As Cs]
+26.5 +26.1 98 +40 +40 очень
душно
1007.1 1006.8 8
21 15.09 штиль 0 8000 м дымка 5/3 600 м
[Cu hum Cs]
+26.4 +25.8 97 +39 +39 очень
душно
1006.0 1005.7
00 16.09 штиль 0 10 км 3/1 600 м
[Cu hum Ci fib]
+26.2 +25.5 96 +38 +39 очень
душно
1007.3 1007.0 +25.3
03 16.09 З 3 10 км 4/3 600 м
[Cu hum Ci fib]
+28.0 +24.1 79 +39 +47 очень
душно
1008.5 1008.2
06 16.09 З 7 10 км гроза, ливневой дождь 10/5 600 м
[Sc Ac As Cs]
+29.3 +26.1 83 +44 +46 опасность
перегрева
1006.4 1006.1 0.2
09 16.09 штиль 0 10 км 8/4 600 м
[Sc Ac As Cs]
+29.3 +26.1 83 +44 +48 опасность
перегрева
1004.1 1003.8
12 16.09 штиль 0 10 км 10/4 600 м
[Sc Ac As Cs]
+28.8 +25.8 84 +43 +43 опасность
перегрева
1005.0 1004.8 +31.7
15 16.09 штиль 0 10 км 10/4 600 м
[Sc Ac As Cs]
+28.2 +25.8 87 +42 +42 опасность
перегрева
1007.3 1007.0
18 16.09 штиль 0 10 км 8/5 600 м
[Sc Ac As Cs]
+27.0 +25.9 94 +40 +40 очень
душно
1007.0 1006.7
21 16.09 штиль 0 10 км 8/3 600 м
[Cu hum Ac As Cs]
+26.0 +25.3 96 +38 +38 очень
душно
1006.2 1005.9
00 17.09 штиль 0 10 км 8/4 600 м
[Sc Ac und Cs]
+26.0 +25.3 96 +38 +38 очень
душно
1007.4 1007.1 +25.4
03 17.09 З 4 10 км 3/3 600 м
[Cu hum Ci fib]
+30.5 +26.3 78 +46 +53 опасность
перегрева
1008.9 1008.6
06 17.09 штиль 0 10 км {дождь} 8/4 600 м
[Cb cap Ac trans Cs]
+32.2 +25.8 69 +47 +58 опасность
перегрева
1006.8 1006.5 0.8
09 17.09 штиль 0 10 км 8/3 600 м
[Sc Ac As Cs]
+32.2 +24.8 65 +45 +49 опасность
перегрева
1005.0 1004.7
12 17.09 Ю 3 10 км 8/3 600 м
[Sc Ac trans Cs]
+29.2 +23.9 73 +40 +40 очень
душно
1006.9 1006.7 +33.2
15 17.09 штиль 0 10 км {дождь} 8/3 600 м
[Sc Ac As Cs]
+28.0 +25.9 88 +42 +42 опасность
перегрева
1008.6 1008.3 0.2
18 17.09 штиль 0 10 км {дождь} 10/5 600 м
[Sc Ac As Cs]
+27.6 +26.0 91 +41 +41 опасность
перегрева
1008.1 1007.8 1
21 17.09 штиль 0 10 км 3/1 600 м
[Cu hum Ci fib]
+27.0 +25.6 92 +40 +40 очень
душно
1007.0 1006.7
00 18.09 штиль 0 6000 м дымка 3/3 600 м
[Cb cap Ci fib]
+26.6 +25.7 95 +39 +40 очень
душно
1008.9 1008.6 +25.9
03 18.09 З 4 10 км 8/5 600 м
[Cu hum Cs]
+30.0 +25.8 78 +45 +49 опасность
перегрева
1009.8 1009.5
06 18.09 З 2 10 км 6/3 600 м
[Cu hum Cs]
+32.0 +25.4 68 +46 +59 опасность
перегрева
1007.3 1007.0
09 18.09 З 5 10 км 10/6 600 м
[Sc Ac As Cs]
+33.0 +26.5 69 +50 +51 опасность
перегрева
1005.2 1004.9
12 18.09 ЮВ 2 10 км зарница 10/8 600 м
[Cb cap Ac As Cs]
+30.5 +25.7 76 +45 +45 опасность
перегрева
1007.5 1007.2 +34.5
15 18.09 штиль 0 10 км {дождь} 10/5 600 м
[Sc Ac As Cs]
+27.3 +25.0 87 +39 +39 очень
душно
1009.6 1009.3 0.4
18 18.09 В 2 8000 м дымка {дождь} 10/5 600 м
[Sc Ac As Cs]
+27.1 +25.5 91 +40 +40 очень
душно
1008.7 1008.5 0.4
21 18.09 штиль 0 6000 м 10/6 600 м
[Sc Ac As Cs]
+26.5 +25.2 93 +38 +38 очень
душно
1008.1 1007.8
00 19.09 штиль 0 10 км {дождь} 9/5 600 м
[Sc Ac As Cs]
+25.5 +24.5 94 +36 +36 очень
душно
1009.5 1009.2 +24.6 6
03 19.09 В 3 8000 м слаб. дождь 10/6 600 м
[Sc Ac As Cs]
+26.0 +25.3 96 +38 +40 очень
душно
1011.3 1011.0 0.5
06 19.09 штиль 0 8000 м дымка {дождь} 9/6 600 м
[Cb cap Ac As Cs]
+30.0 +25.3 76 +44 +53 опасность
перегрева
1008.8 1008.5 0.2
09 19.09 СЗ 3 8000 м дымка 10/6 600 м
[Sc Ac As Cs]
+30.0 +25.8 78 +45 +46 опасность
перегрева
1006.8 1006.5
12 19.09 ЮВ 5 6000 м дымка {дождь} 8/4 600 м
[Sc Ac As Cs]
+28.0 +25.9 88 +42 +42 опасность
перегрева
1008.2 1007.9 +31.2 7
15 19.09 штиль 0 6000 м дымка 8/3 600 м
[Sc Ac As Cs]
+27.3 +25.4 89 +40 +40 очень
душно
1010.1 1009.8
18 19.09 Ю 3 4000 м слаб. дождь 10/5 600 м
[Sc Ac As]
+26.6 +25.0 91 +38 +38 очень
душно
1010.7 1010.4 3
21 19.09 штиль 0 6000 м дымка {гроза} 10/5 600 м
[Sc Ac As Cs]
+25.2 +24.5 96 +35 +35 очень
душно
1008.4 1008.1 25
00 20.09 штиль 0 8000 м дымка {гроза} 8/3 600 м
[Sc Ac trans Cs]
+25.2 +24.9 98 +36 +36 очень
душно
1009.2 1008.9 +24.8 35
03 20.09 штиль 0 10 км 8/4 600 м
[Sc Ac As Cs]
+28.5 +25.7 85 +42 +50 опасность
перегрева
1010.4 1010.1
06 20.09 З 3 10 км 5/3 600 м
[Cu med, cong Ac und Cs]
+30.7 +25.5 74 +45 +55 опасность
перегрева
1007.9 1007.6
09 20.09 Ю 4 10 км 8/4 600 м
[Sc Ac As Cs]
+31.0 +24.6 69 +44 +46 опасность
перегрева
1006.0 1005.7
12 20.09 штиль 0 10 км 8/4 600 м
[Sc Ac As Cs]
+27.8 +25.2 86 +40 +40 очень
душно
1007.4 1007.1 +32.7
15 20.09 штиль 0 10 км 10/4 600 м
[Sc Ac As Cs]
+27.5 +24.9 86 +39 +39 очень
душно
1009.4 1009.1
18 20.09 Ю 4 10 км 10/5 600 м
[Sc Ac As Cs]
+26.8 +25.2 91 +39 +39 очень
душно
1008.0 1007.7
21 20.09 штиль 0 10 км слаб. дождь 10/4 600 м
[Sc Ac As Cs]
+25.7 +24.7 94 +36 +36 очень
душно
1007.2 1006.9 0.5
00 21.09 В 3 10 км {дождь} 10/4 600 м
[Sc Ac As Cs]
+26.0 +25.6 98 +38 +38 очень
душно
1007.2 1006.9 +25.5 3
03 21.09 штиль 0 10 км {дождь} 6/3 600 м
[Cu hum Ac lent Cs]
+28.6 +25.2 82 +42 +52 опасность
перегрева
1009.4 1009.1 2
06 21.09 З 3 10 км гроза без осадков 10/8 600 м
[Cb cap Ac As Cs]
+28.8 +25.7 83 +43 +44 опасность
перегрева
1007.6 1007.4 2
09 21.09 СВ 2 10 км {гроза, дождь} 10/6 600 м
[Sc Ac As Cs]
+28.5 +25.8 85 +42 +44 опасность
перегрева
1006.2 1005.9 0.9
12 21.09 штиль 0 10 км {гроза, дождь} 10/6 600 м
[Sc Ac As Cs]
+27.6 +25.8 90 +41 +41 опасность
перегрева
1007.6 1007.3 +31.7 3
15 21.09 В 3 6000 м слаб. дождь 10/6 600 м
[Sc Ac cuf Cs]
+27.0 +26.4 97 +41 +41 опасность
перегрева
1010.1 1009.8 0.5
18 21.09 штиль 0 6000 м слаб. дождь 10/8 600 м
[Cu Sc Ac As]
+25.2 +24.9 98 +36 +36 очень
душно
1009.6 1009.3 36
21 21.09 штиль 0 6000 м дымка {дождь} 10/6 600 м
[Sc Ac As Cs]
+25.5 +25.3 99 +37 +37 очень
душно
1008.7 1008.5 3
00 22.09 штиль 0 8000 м дымка {дождь} 10/6 600 м
[Sc Ac As Cs]
+25.7 +25.5 99 +37 +38 очень
душно
1010.7 1010.4 +24.5 42
03 22.09 штиль 0 8000 м слаб. дождь 10/5 600 м
[Sc Ac As Cs]
+25.0 +24.7 98 +35 +40 очень
душно
998.8 998.5 45
06 22.09 З 3 10 км {дождь} 10/4 600 м
[Sc Ac As Cs]
+26.7 +25.0 90 +38 +43 очень
душно
1009.8 1009.6 0.0
09 22.09 штиль 0 10 км 8/4 600 м
[Sc Ac As Cs]
+28.8 +24.0 75 +40 +43 очень
душно
1008.5 1008.2
12 22.09 штиль 0 10 км 10/4 600 м
[Sc Ac As Cs]
+27.0 +24.1 84 +37 +37 очень
душно
1010.3 1010.0 +29.5

 

Местоположение метеостанции Чонбури (Таиланд): широта 13.37 долгота 100.98 высота над уровнем моря 2 м.

В архиве по умолчанию представлена погода в Чонбури за последнюю неделю. Архивные данные за месяц целиком и за предыдущие месяцы, начиная с января 2011 года, Вы можете получить, выбрав интересующий диапазон дат из раскрывающегося списка и нажав кнопку "Ввод!".


*Определитесь, кто Вы:
робот инопланетянин человек

Внимание! Время в таблицах - всемирное. Для получения местного времени необходимо прибавить поправку, которая равна 7 ч.

Смотрите также архив погоды в соседних городах и на ближайших метеорологических станциях:

Погода на Ко Сичан (Таиланд) (30 км)
Погода в Самутрудкан Агромете (Таиланд) (30 км)
Погода в Бангкок Пилот (Таиланд) (41 км)
Погода в Аэропорту Суварнабхуми (Таиланд) (42 км)
Погода в Бангна Агромете (Таиланд) (51 км)
Погода в Паттайе (Таиланд) (52 км)
Погода в Чаченгсау (Таиланд) (53 км)
Погода в Бангкоке 2 (Таиланд) (58 км)
Погода в Бангкоке (Таиланд) (61 км)
Погода в Хуайпонг Агромете (Таиланд) (73 км)

Пояснения к столбцам:

Ветер - указаны скорость ветра в м/с - средняя за 10 мин, порывы в срок и между сроками (в фигурных скобках) и направление, откуда дует ветер: С - северный, СВ - северо-восточный, В - восточный, ЮВ - юго-восточный, Ю - южный, ЮЗ - юго-западный, З - западный, СЗ - северо-западный.
Видимость - горизонтальная дальность видимости в метрах или километрах. При видимости от 1 до 10 км при отсутствии осадков обычно наблюдается дымка, при ухудшении видимости до 1 км и менее - туман. В сухую погоду видимость может ухудшаться дымом, пылью или мглою.
Явления - указаны атмосферные явления, наблюдавшиеся в срок или в последний час перед сроком; фигурными скобками обозначены явления, наблюдавшиеся между сроками (за 1-3 часа до срока); квадратными скобками обозначены град или гололедные отложения с указанием их диаметра в мм.
Облачность - указаны через наклонную черту общая и нижняя облачность в баллах и высота нижней границы облаков в метрах; квадратными скобками обозначены формы облаков: Ci - перистые, Cs - перисто-слоистые, Cc - перисто-кучевые, Ac - высококучевые, As - высокослоистые, Sc - слоисто-кучевые, Ns - слоисто-дождевые, Cu - кучевые, Cb - кучево-дождевые. Подробнее классификацию облаков см. в Атласе облаков (PDF).
T - Температура воздуха - температура, измеренная на высоте 2 м над землей.
Td - Температура точки росы - температура, при понижении до которой содержащийся в воздухе водяной пар достигнет насыщения.
f - Относительная влажность воздуха - влажноcть воздуха, измеренная на высоте 2 м над землей.
Te - Эффективная температура - температура, которую ощущает одетый по сезону человек в тени. Характеристика душности погоды. При расчете учитывается влияние влажности воздуха и скорости ветра на теплоощущения человека.
Tes - Эффективная температура на солнце - температура, которую ощущает человек, с поправкой на солнечный нагрев. Характеристика знойности погоды. Зависит от высоты солнца над горизонтом, облачности и скорости ветра. Ночью, в пасмурную погоду, а также при ветре 12 м/с и более поправка равна нулю.
P - Атмосферное давление - приведенное к уровню моря атмосферное давление.
Po - Атмосферное давление - измеренное на уровне метеостанции атмосферное давление.
Tmin - Минимальная температура - минимум температуры воздуха на высоте 2 м над землей.
Tmax - Максимальная температура - максимум температуры воздуха на высоте 2 м над землей.
R - Количество осадков - Количество выпавших осадков за период времени, мм. При наведении курсора мыши на число - период времени, за который выпало указанное количество осадков.
R24 - Количество осадков - Количество выпавших осадков за 24 часа, мм.
S - Снежный покров - Высота снежного покрова, см. При наведении курсора мыши на число - состояние снежного покрова и степень покрытия местности в баллах.